Flag for Philippines Weather past 2 weeks in Olongapo, Philippines

Now
84 °F

Scattered clouds.


Feels Like: 90 °F
Forecast: 76 / 89 °F
Wind: 3 mph from North

Location: Subic Bay Weather Station

Current Time: Oct 25, 2014 at 9:48:48 AM

Latest Report: Oct 25, 2014 at 9:00 AM


Visibility: N/A

Pressure: 29.89 "Hg

Humidity: 66%

Dew point: 72 °F

Location of OlongapoLocation

Historic Weather in Olongapo — Graph

°F

Olongapo temperature yesterday

Maximum temperature yesterday: 90 °F (at 2:00 PM)
Minimum temperature yesterday: 75 °F (at 2:00 AM)
Average temperature yesterday: 83 °F

Past Weeks' High & Low Weather Summary

 TemperatureHumidityPressure
High90 °F (Oct 13, 12:00 PM)94% (Oct 11, 10:00 PM)30.01 "Hg (Oct 11, 10:00 PM)
Low73 °F (Oct 25, 6:00 AM)52% (Oct 16, 12:00 PM)29.59 "Hg (Oct 10, 2:00 PM)
Average81 °F76%29.83 "Hg
* Reported Oct 10 9:00 AM — Oct 25 9:00 AM, Olongapo, Weather by CustomWeather, © 2014

Note: Actual official high and low records may vary slightly from our data, if they occured in-between our weather recording intervals... More about our weather records

Advertising

Olongapo weather history for previous 24 hours

 ConditionsComfort  
Time TempWeatherWind HumidityBarometerVisibility
9:00 AM
Oct 25
84 °FScattered clouds.3 mph66%29.89 "HgN/A
8:00 AM84 °FPassing clouds.No wind66%29.89 "HgN/A
7:00 AM75 °FScattered clouds.No wind89%29.89 "HgN/A
6:00 AM73 °FScattered clouds.No wind89%29.86 "HgN/A
5:00 AM75 °FPassing clouds.No wind89%29.83 "HgN/A
2:00 AM77 °FPassing clouds.No wind79%29.86 "HgN/A
12:00 AM77 °FPassing clouds.No wind79%29.89 "HgN/A
11:00 PM
Oct 24
77 °FPassing clouds.No wind79%29.89 "HgN/A
10:00 PM81 °FPassing clouds.6 mph70%29.89 "HgN/A
9:00 PM79 °FPassing clouds.6 mph74%29.89 "HgN/A
8:00 PM81 °FPassing clouds.8 mph70%29.86 "HgN/A
7:00 PM82 °FPassing clouds.8 mph66%29.86 "HgN/A
6:00 PM84 °FPassing clouds.7 mph66%29.83 "HgN/A
5:00 PM86 °FScattered clouds.6 mph59%29.80 "HgN/A
4:00 PM88 °FScattered clouds.12 mph55%29.80 "HgN/A
3:00 PM90 °FScattered clouds.12 mph55%29.77 "HgN/A
2:00 PM90 °FPassing clouds.12 mph55%29.80 "HgN/A
1:00 PM88 °FPassing clouds.12 mph55%29.83 "HgN/A
12:00 PM88 °FPassing clouds.10 mph55%29.83 "HgN/A
11:00 AM88 °FPassing clouds.12 mph59%29.86 "HgN/A
10:00 AM86 °FPassing clouds.12 mph66%29.89 "HgN/A
9:00 AM84 °FPassing clouds.10 mph74%29.89 "HgN/A
Weather by CustomWeather, © 2014

See weather overviewHow to use our weather pages